Wind_Speed
23 23 23 23 20 18 18 17 16 16 14 13 11 11 11 10 11 11 11 12 11 10 9 8 8 8 8 8 8 9 10 11 12 12 12 12 11 11 11 10 10 9
25 24 23 24 23 20 19 19 18 17 16 15 13 13 13 12 11 11 11 12 12 11 11 10 9 8 8 9 9 10 10 11 11 12 12 12 12 12 11 11 11 10
27 26 24 24 24 21 20 20 20 19 18 17 16 16 15 13 12 12 11 12 12 12 12 11 11 10 9 9 10 11 11 12 12 12 11 11 11 11 11 11 11 12
27 27 26 25 25 23 22 21 21 20 20 19 19 17 17 15 14 13 13 12 12 13 13 12 12 12 11 10 11 12 12 13 13 12 11 11 10 10 11 11 11 12
27 26 26 26 26 26 25 23 22 21 20 20 19 19 18 17 16 15 15 14 13 13 13 13 13 13 13 12 12 12 13 13 13 12 12 11 11 10 11 11 11 11
27 27 26 27 27 28 28 26 24 22 21 20 20 19 19 18 17 16 16 16 15 14 13 13 14 14 13 13 13 13 13 14 14 13 13 12 12 11 10 11 12 11
29 28 27 27 28 28 28 28 26 25 23 22 21 20 20 19 18 17 17 17 17 16 15 14 14 14 14 14 14 15 15 15 15 15 14 14 14 13 11 11 11 12
31 30 29 28 28 28 28 28 28 27 25 24 23 22 21 20 19 18 18 18 18 17 16 16 15 15 15 15 15 15 16 16 16 15 15 15 15 15 13 12 12 12
32 32 31 31 30 29 29 28 28 28 27 26 25 23 22 21 20 20 19 19 19 19 18 17 17 16 16 17 16 16 17 17 17 16 16 16 15 16 15 15 14 14
33 33 33 33 32 31 30 28 28 28 28 28 27 26 25 23 21 21 21 21 20 20 20 19 18 18 18 17 17 17 18 17 18 18 17 17 17 17 17 17 17 16
33 34 34 34 33 32 31 29 29 29 29 29 29 28 27 25 24 23 23 23 22 21 21 20 19 19 19 18 18 18 18 18 19 19 19 19 18 19 19 19 19 18
33 34 34 34 33 32 31 30 30 30 30 30 30 29 29 28 26 24 23 24 23 22 22 21 20 19 19 19 20 20 19 19 20 20 20 20 21 21 21 20 20 20
33 33 33 33 33 32 31 31 31 31 31 30 30 30 30 29 28 25 23 24 24 23 22 22 22 21 20 20 21 22 21 21 21 21 21 22 22 22 22 22 22 22
31 32 33 33 33 32 32 32 32 32 31 31 30 30 30 29 28 26 24 24 25 25 23 22 23 23 22 22 22 23 23 23 22 22 22 22 22 22 23 23 23 23
29 31 32 33 33 33 33 33 33 32 32 31 31 31 30 29 29 28 26 25 25 26 25 24 24 24 24 24 24 24 24 24 23 23 22 22 22 22 23 23 23 23
28 29 30 32 33 34 34 34 34 33 33 33 32 31 30 29 29 29 28 27 26 27 27 26 25 24 24 24 24 24 24 24 24 24 23 22 22 22 23 23 23 22
28 29 29 30 32 33 34 34 34 34 34 34 33 32 31 30 29 30 29 28 27 28 28 28 26 25 23 23 24 24 24 24 24 24 24 23 23 22 22 22 22 22
30 30 29 30 30 31 33 34 34 35 34 34 34 33 32 31 30 30 29 29 29 29 30 29 27 25 24 24 24 24 24 24 24 24 24 24 24 23 22 21 21 21
31 31 31 30 30 30 31 32 34 35 35 34 34 33 33 32 31 30 29 29 29 30 30 30 29 27 26 26 25 25 25 25 25 25 25 24 24 23 22 22 21 21
33 33 32 31 30 30 31 32 33 34 34 34 33 33 33 33 32 31 29 29 29 30 30 31 30 29 28 27 26 26 26 26 26 25 25 25 25 24 23 23 22 22
34 34 33 33 32 31 31 32 33 34 34 33 33 33 33 33 32 32 30 29 28 29 30 31 30 29 29 29 28 27 27 27 28 27 27 27 26 26 25 25 24 24
33 35 35 34 33 33 32 32 33 33 33 33 33 33 32 32 32 32 31 30 29 28 29 30 30 29 29 30 29 29 29 29 30 30 30 29 29 28 27 26 26 26
31 34 36 35 36 35 34 33 33 33 33 33 33 33 32 32 31 32 32 31 30 29 29 29 29 29 29 29 30 30 31 31 32 31 32 31 30 29 29 28 28 27
31 32 33 34 36 37 36 35 34 33 33 33 34 33 32 31 31 31 32 32 31 30 29 29 29 29 29 29 29 30 31 32 32 32 32 32 31 30 30 30 29 29
33 31 30 31 35 38 37 37 36 34 34 33 34 34 32 32 31 31 32 32 31 31 30 30 29 29 29 30 29 30 31 31 32 32 32 32 31 31 31 31 31 30
34 31 29 29 32 36 37 37 37 36 35 35 35 34 34 33 32 31 31 31 31 31 31 31 30 30 30 30 30 31 31 32 33 34 34 33 32 32 33 33 32 32
Wind_Direction
209 206 207 214 218 216 214 215 212 213 219 217 208 207 207 197 188 188 187 188 191 190 187 183 179 175 168 166 168 163 160 165 169 172 174 175 175 176 176 173 168 167
211 209 207 211 217 218 214 215 215 214 219 221 216 213 216 211 200 196 195 192 194 194 191 186 184 184 176 170 172 170 164 164 167 168 168 168 169 171 172 170 164 159
212 212 209 209 215 220 217 215 216 216 217 220 220 218 219 219 211 207 205 199 198 198 196 190 186 186 185 179 176 176 174 171 171 171 171 172 173 174 173 172 165 156
211 212 211 210 213 219 221 219 218 217 218 219 221 220 220 221 218 215 213 209 205 202 199 197 191 186 188 187 183 181 181 181 179 180 180 181 183 180 176 175 170 160
210 211 212 211 212 216 221 223 222 220 220 221 223 223 221 221 220 218 218 216 211 206 202 201 198 193 190 190 189 186 186 187 187 188 187 186 188 185 177 174 172 169
210 210 210 211 211 214 218 222 224 224 224 223 225 226 226 224 220 218 218 219 215 210 208 205 202 199 196 194 192 191 191 191 190 193 194 191 191 191 185 176 174 178
212 210 209 210 211 213 215 218 222 225 225 225 226 227 228 227 224 219 218 220 219 215 212 211 207 203 202 201 198 196 196 195 194 194 196 196 194 194 194 187 182 184
213 213 212 211 211 212 214 215 217 221 224 226 227 227 227 228 227 223 219 219 221 219 214 213 211 207 206 206 205 203 201 199 198 196 197 199 199 198 198 198 196 194
213 214 214 213 213 212 213 214 215 217 220 224 228 229 230 229 228 226 222 219 220 220 218 215 213 213 211 210 209 208 207 205 203 201 200 200 201 202 203 204 205 205
213 214 215 216 216 214 214 213 214 216 218 221 225 228 231 232 230 227 225 221 218 216 217 217 215 216 217 214 213 212 211 210 209 208 206 204 203 205 207 208 209 211
215 215 216 217 217 216 215 214 215 216 218 219 221 224 228 231 231 229 225 224 220 215 215 217 217 218 219 218 217 216 215 214 214 213 212 211 210 210 212 212 212 214
217 217 218 218 218 217 216 216 216 217 218 220 221 223 225 228 231 230 226 225 225 220 215 214 216 217 218 219 219 220 219 217 217 216 216 217 217 217 218 218 217 218
219 220 221 220 220 219 217 217 217 218 219 221 222 223 225 226 229 229 227 225 227 227 220 215 215 216 215 215 217 220 221 220 219 219 219 221 222 223 224 224 223 223
220 222 223 223 222 221 219 219 219 219 220 221 223 225 226 227 228 229 228 226 226 229 227 222 219 218 215 214 215 219 222 222 221 221 220 222 225 227 229 229 229 229
222 224 225 225 225 223 222 220 220 220 221 222 224 226 226 227 228 228 228 226 225 228 230 228 224 220 217 216 216 218 222 224 225 224 224 224 226 229 232 233 233 234
223 225 226 227 226 225 224 223 222 221 221 222 224 226 227 227 228 228 227 225 223 225 229 230 227 223 220 219 219 220 223 225 227 228 229 229 229 230 232 234 236 237
224 226 227 228 228 227 226 225 224 224 223 223 224 225 226 228 228 228 227 225 223 223 226 229 228 226 225 224 223 224 224 225 227 228 230 231 231 230 230 232 235 237
223 225 227 228 228 229 228 227 226 226 226 225 225 225 225 227 229 229 227 225 223 223 224 227 227 226 226 227 227 227 227 227 227 228 229 230 231 231 229 229 231 233
221 223 226 228 228 229 230 229 229 228 228 228 227 226 226 227 229 229 228 225 224 223 224 226 227 225 225 227 227 227 228 230 230 230 230 231 232 232 232 231 231 232
221 221 223 226 227 229 229 230 231 231 231 230 229 228 227 227 229 230 229 227 225 224 225 226 227 226 225 226 226 227 228 230 232 233 233 233 234 235 235 235 236 237
221 221 222 223 225 228 228 229 231 232 232 232 231 231 230 229 229 231 232 230 227 225 226 227 228 227 226 227 226 227 229 231 233 234 235 235 235 236 238 238 240 241
224 221 222 223 224 226 228 229 230 232 233 234 234 233 232 231 230 231 233 233 231 228 227 227 228 227 227 227 227 227 229 232 234 235 236 236 237 238 240 241 243 245
230 222 222 223 223 224 227 229 231 232 233 235 236 236 234 234 233 231 232 233 234 232 230 228 227 227 227 228 228 228 229 232 235 236 238 239 239 240 241 242 244 246
235 225 222 224 224 224 225 227 230 232 233 235 237 238 238 237 236 235 234 234 235 235 234 231 228 225 226 228 229 230 231 233 236 238 240 241 242 243 244 244 245 245
237 229 225 226 225 224 225 226 229 231 233 235 237 239 240 240 239 238 237 236 236 236 236 235 231 227 225 226 228 231 233 234 236 239 241 243 244 245 246 247 247 247
236 234 233 232 228 226 226 227 229 230 231 233 236 238 240 241 241 240 240 239 238 237 237 237 236 232 228 226 227 230 233 235 237 239 242 244 246 248 249 251 251 252
Height
3212 3214 3216 3217 3218 3220 3222 3223 3224 3225 3226 3227 3228 3229 3230 3231 3232 3233 3234 3234 3235 3236 3236 3237 3237 3238 3238 3238 3239 3240 3240 3241 3241 3242 3242 3242 3243 3244 3245 3246 3247 3247
3211 3212 3214 3216 3217 3218 3220 3222 3224 3225 3225 3226 3227 3228 3229 3230 3231 3232 3233 3234 3235 3235 3236 3236 3237 3238 3238 3239 3239 3240 3241 3241 3241 3242 3242 3243 3244 3244 3245 3246 3247 3247
3209 3210 3212 3214 3216 3217 3219 3221 3222 3224 3225 3225 3226 3227 3228 3229 3230 3231 3232 3233 3234 3235 3235 3236 3237 3237 3238 3238 3239 3240 3241 3241 3242 3242 3243 3243 3244 3244 3245 3246 3247 3247
3207 3208 3210 3213 3215 3216 3218 3219 3221 3222 3224 3224 3225 3226 3227 3228 3229 3230 3231 3232 3233 3234 3235 3236 3236 3237 3238 3238 3239 3240 3241 3241 3242 3242 3243 3243 3244 3244 3245 3246 3247 3247
3205 3207 3209 3211 3213 3215 3216 3217 3218 3220 3222 3223 3224 3225 3226 3227 3228 3229 3230 3231 3232 3233 3234 3235 3236 3236 3237 3238 3239 3240 3241 3241 3242 3242 3243 3243 3244 3245 3245 3246 3247 3248
3203 3205 3207 3208 3210 3212 3214 3215 3217 3218 3220 3222 3223 3224 3225 3226 3227 3228 3229 3230 3231 3232 3233 3234 3235 3236 3236 3237 3238 3239 3240 3241 3241 3242 3243 3243 3244 3245 3245 3246 3246 3248
3201 3203 3204 3206 3208 3210 3211 3213 3215 3216 3218 3220 3221 3223 3224 3224 3226 3227 3228 3229 3230 3231 3232 3233 3233 3235 3236 3237 3238 3239 3240 3240 3241 3242 3242 3243 3244 3244 3245 3246 3246 3247
3199 3201 3202 3204 3205 3207 3209 3211 3213 3215 3216 3218 3219 3221 3222 3223 3224 3225 3227 3227 3228 3229 3231 3232 3232 3233 3234 3235 3236 3238 3239 3240 3240 3241 3242 3242 3243 3244 3245 3246 3246 3247
3197 3198 3200 3201 3203 3205 3207 3209 3211 3213 3215 3216 3217 3219 3220 3221 3222 3224 3225 3226 3227 3228 3229 3230 3231 3232 3233 3234 3235 3236 3237 3239 3239 3240 3241 3242 3243 3243 3244 3245 3246 3246
3195 3196 3197 3199 3200 3202 3204 3207 3209 3211 3212 3214 3215 3216 3218 3219 3221 3222 3223 3224 3225 3226 3227 3228 3229 3230 3231 3232 3233 3234 3236 3237 3238 3239 3240 3241 3242 3242 3243 3244 3245 3245
3192 3194 3195 3196 3198 3200 3202 3204 3206 3208 3210 3212 3213 3214 3216 3217 3218 3220 3221 3222 3223 3224 3226 3227 3228 3229 3230 3231 3232 3233 3234 3235 3236 3237 3238 3239 3240 3241 3242 3242 3243 3244
3190 3191 3193 3194 3196 3198 3200 3202 3204 3206 3207 3209 3211 3212 3213 3215 3216 3217 3219 3220 3221 3222 3224 3225 3226 3227 3228 3229 3230 3231 3232 3233 3234 3235 3236 3237 3238 3239 3240 3241 3242 3243
3187 3189 3191 3193 3194 3196 3198 3200 3201 3203 3205 3206 3208 3210 3211 3212 3213 3215 3217 3218 3219 3221 3222 3223 3224 3225 3226 3227 3228 3229 3230 3231 3232 3233 3234 3235 3236 3237 3238 3239 3239 3240
3185 3187 3189 3191 3193 3195 3196 3197 3199 3200 3202 3204 3205 3207 3208 3210 3211 3213 3214 3216 3217 3218 3220 3221 3222 3223 3224 3225 3226 3227 3227 3228 3229 3230 3232 3233 3234 3235 3235 3236 3237 3238
3184 3185 3187 3189 3190 3192 3193 3195 3196 3198 3199 3201 3202 3204 3205 3207 3209 3210 3212 3213 3215 3216 3217 3218 3219 3220 3221 3222 3223 3224 3225 3226 3227 3228 3229 3230 3232 3232 3233 3234 3234 3235
3181 3183 3184 3186 3188 3189 3191 3192 3194 3195 3196 3198 3199 3201 3203 3204 3206 3208 3209 3210 3212 3213 3214 3215 3216 3217 3219 3220 3221 3222 3224 3225 3225 3226 3227 3228 3229 3230 3231 3231 3232 3233
3178 3180 3181 3183 3185 3187 3188 3190 3191 3192 3193 3195 3196 3198 3200 3202 3203 3204 3206 3207 3209 3210 3211 3212 3214 3215 3217 3218 3219 3220 3221 3222 3223 3224 3225 3225 3226 3227 3228 3229 3230 3230
3175 3177 3178 3180 3182 3184 3185 3187 3189 3190 3190 3192 3193 3195 3197 3199 3200 3201 3203 3205 3206 3207 3208 3209 3211 3213 3214 3216 3217 3218 3219 3220 3220 3221 3222 3222 3223 3225 3226 3227 3227 3228
3171 3173 3175 3177 3179 3181 3183 3185 3186 3186 3187 3189 3190 3192 3194 3195 3197 3198 3200 3202 3203 3204 3205 3206 3208 3210 3211 3213 3214 3215 3217 3217 3218 3219 3219 3220 3221 3222 3223 3224 3225 3225
3168 3170 3172 3174 3176 3178 3180 3181 3182 3183 3185 3186 3188 3189 3191 3192 3194 3195 3197 3199 3200 3201 3203 3204 3206 3207 3209 3210 3211 3213 3214 3215 3215 3216 3217 3218 3218 3219 3220 3221 3222 3222
3166 3167 3168 3171 3173 3175 3177 3178 3179 3181 3182 3184 3185 3186 3188 3189 3191 3193 3194 3196 3198 3199 3200 3201 3203 3205 3206 3207 3209 3210 3211 3212 3212 3213 3214 3215 3216 3216 3217 3218 3219 3219
3163 3164 3165 3167 3170 3172 3173 3175 3176 3178 3179 3181 3182 3184 3185 3186 3188 3190 3191 3193 3195 3196 3197 3199 3200 3203 3204 3205 3206 3208 3209 3209 3209 3210 3211 3212 3213 3214 3214 3215 3216 3216
3159 3160 3161 3163 3166 3168 3169 3171 3173 3175 3177 3179 3180 3181 3182 3183 3185 3187 3188 3190 3192 3193 3194 3196 3198 3200 3201 3203 3204 3205 3206 3206 3206 3207 3208 3209 3210 3211 3212 3213 3213 3214
3155 3157 3157 3159 3162 3164 3166 3168 3170 3172 3174 3176 3177 3178 3180 3181 3183 3184 3186 3187 3189 3190 3192 3194 3196 3198 3199 3200 3202 3203 3203 3204 3204 3205 3205 3206 3207 3208 3209 3210 3210 3211
3150 3152 3153 3155 3158 3160 3162 3165 3167 3169 3171 3173 3174 3175 3177 3179 3180 3182 3183 3184 3186 3188 3189 3191 3193 3195 3197 3198 3199 3200 3201 3201 3202 3202 3203 3204 3205 3206 3206 3207 3208 3208
3145 3147 3149 3151 3154 3156 3159 3161 3163 3166 3168 3169 3171 3172 3174 3175 3177 3178 3180 3181 3183 3185 3186 3188 3190 3192 3194 3196 3197 3198 3198 3199 3199 3199 3200 3201 3203 3203 3204 3204 3205 3205